STARLINK-4723, 53797

Orbit data source: Space-Track

STARLINK-4723, 53797 is a payload satellite owned by SpaceX/Seattle (US) in LEO that was launched on Sun, 11 Sep 2022 UTC via an FALCON 9 launch vehicle from the Air Force Eastern Test Range (AFETR). Payloads include a variety of satellites, spacecraft, and rockets equipped with specific instruments for various scientific and technological missions. These include communications satellites like Starlink; space stations such as the ISS; scientific satellites like the Hubble; Earth observation satellites from companies like Planet Labs, Umbra, and HawkEye 360; GPS; miniature CubeSats for education and research; and military/defense satellites.

Loading next visibility...
STARLINK-4723 details
Identifier
53797, 2022-111AA
Orbit
LEO
Last TLE update15 hours ago
Origin
Flag of USSpaceX/Seattle (US)
ManufacturerSpaceX/Seattle
MissionOperational Commercial Communications
Bus & MotorSTARLINK, Unknown motor
Mass305 kg wet, ~290 kg dry
Launch date (UTC)
2022-09-11 (2 years ago)
Launch vehicle
FALCON 9
Launch site
Air Force Eastern Test Range (AFETR)
Object type
Payload
Rocket body
Debris
Shape & HBRBox + 1 Pan, 8.86 m
Radar Cross Section13.562 m², Large (>1 m²)

Expand to show TLE details & history

TLE from 15 hours ago
0 STARLINK-4723
1 53797U 22111AA  24356.61869162  .00001212  00000-0  94202-4 0  9994
2 53797  53.2177 102.7046 0001337  80.4582 279.6561 15.08843689126792
Epoch: 2024-12-21T14:50Z
Definitive object data (Epoch: 2024-12-21T14:50:54.955Z)
Latitude-0.00006°
Longitude149.30831°
Altitude540.475 km
Speed7.593 km/s
True Right ascension06h 50m 49s
True Declination0° 00' 00"
Sunlit
Object was in full shadow at TLE epoch
Visualization TLE readout
Latitude-52.91707°
Longitude46.06235°
Altitude559.06 km
Speed7.581 km/s
Apparent Right ascension20h 20m 16s
Apparent Declination-58° 07' 09"
Sunlit
Object is in daylight
Visualization observer readout
Local Sidereal Time05:23:58
Azimuth222.014° SW
Elevation-56.71°
Doppler factor1
Orbital elements
Apogee altitude540.902 km
Perigee altitude539.052 km
Semi-major axis6,918.114 km
Eccentricity0.0001337
Inclination53.2177°
RAAN102.7046°
Arg. of periapsis80.4582°
True anomaly279.641°
Mean anomaly279.6561°
Eccentric anomaly279.64855°
Mean motion3.77191 °/min
BSTAR0.000094202
Orbital period95.44 mins
Loading maneuver chart data...
Loading historical data...
Loading historical data...
Loading historical data...
Loading historical data...
Loading historical data...
Loading historical data...
Loading historical data...

STARLINK-4723 Visibility forecast

Observer location: undefined°, undefined

Span
Click to sort rows by Start time (UTC) header in descending order
Start Az.
Max El. time (UTC)
Max El. Az.
Max El.
End time (UTC)
End Az.
6 mins2024-12-22 10:07:14.031Z232.869° WSW2024-12-22 10:10:14.031Z33.079° NE42.889°2024-12-22 10:13:14.031Z48.347° ENE
4 mins2024-12-22 11:48:14.031Z312.166° NW2024-12-22 11:49:14.031Z331.116° NNW18.539°2024-12-22 11:52:14.031Z23.117° NE
4 mins2024-12-22 15:09:14.031Z350.415° N2024-12-22 15:11:14.031Z30.011° NE19.24°2024-12-22 15:13:14.031Z64.191° ENE
6 mins2024-12-22 16:48:14.031Z310.138° NW2024-12-22 16:50:14.031Z309.807° NW43.394°2024-12-22 16:54:14.031Z131.336° SE
|